239ALFEROV (RS61S)

Last updated on Wed Sep 09 2026 00:03:15 GMT+0000 (Coordinated Universal Time)

1 64881U 25155F 26251.58374658 .00015190 00000+0 44854-3 0 9990 2 64881 97.4635 221.6917 0005009 225.4302 134.6533 15.35049999 93598
UTC large
Height (km)
Speed (km/s)
/
Latitude / Longitude
Inclination (degrees)
Orbital Period (minutes)
Azimuth
Elevation
Range (km)
Doppler Factor

Next 0 passes for location: London (51.5072 / 0.1276)

No passes found over London.
239ALFEROV (RS61S)